This is the latest recevied weather packets stored in our database for station/object KC3ROS. If no packets are shown the sender has not sent any weather packets the latest 10 day(s).
| Time | Temp. | Humidity | Pressure | Rain* | Wind** | Luminosity | Snow |
|---|---|---|---|---|---|---|---|
| 1778057381 | 12.78° C | 99% | 1005.1 hPa | 2.29 mm | - | 0 W/m² | - |
| 1778057078 | 12.78° C | 99% | 1005 hPa | 3.05 mm | - | 0 W/m² | - |
| 1778056774 | 12.78° C | 99% | 1005.2 hPa | 3.05 mm | - | 0 W/m² | - |
| 1778056472 | 12.78° C | 99% | 1005.3 hPa | 3.05 mm | - | 0 W/m² | - |
| 1778056168 | 12.78° C | 99% | 1005 hPa | 3.05 mm | - | 0 W/m² | - |
| 1778055866 | 12.78° C | 99% | 1005 hPa | 3.56 mm | - | 0 W/m² | - |
| 1778055561 | 12.78° C | 99% | 1004.9 hPa | 3.05 mm | - | 0 W/m² | - |
| 1778055260 | 12.78° C | 99% | 1005.2 hPa | 3.05 mm | - | 0 W/m² | - |
| 1778054957 | 12.78° C | 99% | 1005.1 hPa | 4.32 mm | - | 0 W/m² | - |
| 1778054653 | 12.78° C | 99% | 1005.1 hPa | 2.29 mm | - | 0 W/m² | - |
| 1778054351 | 12.78° C | 99% | 1004.9 hPa | 0 mm | - | 0 W/m² | - |
| 1778054049 | 12.78° C | 99% | 1004.6 hPa | 0 mm | - | 0 W/m² | - |
| 1778053745 | 12.78° C | 99% | 1004.7 hPa | 0 mm | - | 0 W/m² | - |
| 1778053443 | 12.78° C | 99% | 1004.7 hPa | 0 mm | - | 0 W/m² | - |
| 1778053140 | 12.78° C | 99% | 1004.8 hPa | 0 mm | - | 0 W/m² | - |
| 1778052837 | 12.78° C | 99% | 1004.8 hPa | 0 mm | - | 0 W/m² | - |
| 1778052534 | 12.78° C | 99% | 1004.9 hPa | 0 mm | - | 0 W/m² | - |
| 1778052232 | 12.78° C | 99% | 1004.6 hPa | 0 mm | - | 0 W/m² | - |
| 1778051929 | 12.78° C | 99% | 1004.8 hPa | 0 mm | - | 0 W/m² | - |
| 1778051627 | 12.78° C | 99% | 1005.1 hPa | 0 mm | - | 0 W/m² | - |
| 1778051324 | 12.78° C | 99% | 1004.8 hPa | 0 mm | - | 0 W/m² | - |
| 1778051021 | 13.33° C | 99% | 1005.1 hPa | 0 mm | - | 0 W/m² | - |
| 1778050718 | 13.33° C | 99% | 1005.3 hPa | 0 mm | - | 0 W/m² | - |
| 1778050416 | 13.33° C | 99% | 1005.4 hPa | 0.51 mm | - | 0 W/m² | - |
| 1778050112 | 13.33° C | 99% | 1005.4 hPa | 0.51 mm | - | 0 W/m² | - |
* Rain latest hour (hover to see other rain measurements)
** Current wind speed in m/s (hover to see current wind gust speed)